Regional Weather Roundup
Issued by NWS Memphis, TN

Home | Current Version | Previous Version | Text Only | Print | Product List | Glossary On
Versions: 1 2 3 4 5 6 7 8 9 10 11 12 13 14 15 16 17 18 19 20 21 22 23 24 25 26 27 28 29 30 31 32 33 34 35 36 37 38 39 40 41 42 43 44 45 46 47 48 49 50
000
ASUS44 KMEG 231210
RWRMEG
MEMPHIS CWA HOURLY WEATHER ROUNDUP
NATIONAL WEATHER SERVICE MEMPHIS TN
700 AM CDT FRI JUN 23 2017

...WEST TENNESSEE...

CITY           SKY/WX    TMP DP  RH WIND       PRES   REMARKS
MEMPHIS INTL   RAIN      75  74  96 S20G33    29.64F FOG
6HR MIN TEMP:  75; 6HR MAX TEMP:  79; 6HR PCP:  0.59;

NWS MEMPHIS      N/A     74 N/A N/A MISG        N/A
JACKSON        PTSUNNY   78  73  84 S13G23    29.73F
6HR MIN TEMP:  77; 6HR MAX TEMP:  78;

COVINGTON      CLOUDY    75  73  94 S13G22    29.67F FOG
SOMERVILLE     CLOUDY    75  73  94 S12G24    29.69F FOG
BOLIVAR        CLOUDY    77  72  83 SE12G24   29.73F
LEXINGTON      PTSUNNY   77  72  83 VRB7G16   29.79S
SELMER         PTSUNNY   77  72  83 S18G29    29.77F
SAVANNAH       CLOUDY    79  72  78 S17G24    29.78F
UNION CITY     CLOUDY    77  73  88 S12       29.71F HAZE
PARIS          CLOUDY    77  72  83 S16G24    29.75F
HUNTINGDON     CLOUDY    77  72  83 S13       29.75F


...EASTERN ARKANSAS...

CITY           SKY/WX    TMP DP  RH WIND       PRES   REMARKS
JONESBORO      RAIN      75  75 100 SE10      29.62F FOG
6HR MIN TEMP:  74; 6HR MAX TEMP:  78; 6HR PCP:  0.44;

WEST MEMPHIS   HVY RAIN  74  32  21 S29G45    29.60F VSB 1/4
6HR MIN TEMP:  74; 6HR MAX TEMP:  79; 6HR PCP:  1.31;

BATESVILLE     PTSUNNY   73  72  94 NW3       29.65R
6HR MIN TEMP:  73; 6HR MAX TEMP:  77; 6HR PCP:  0.05;

WALNUT RIDGE   CLOUDY    73  70  88 NE8       29.65S
6HR MIN TEMP:  73; 6HR MAX TEMP:  79; 6HR PCP:  0.20;

BLYTHEVILLE    RAIN      75  74  96 SE10G18   29.67F
6HR MIN TEMP:  75; 6HR MAX TEMP:  79; 6HR PCP:  0.42;

SEARCY         CLOUDY    75  75 100 MISG      29.66R
6HR MIN TEMP:  74; 6HR MAX TEMP:  77; 6HR PCP:  0.03;

STUTTGART      CLOUDY    75  64  69 W10       29.66R
                                      6HR PCP:  0.64;

PINE BLUFF     CLOUDY    76  74  93 SW14      29.71R
6HR MIN TEMP:  75; 6HR MAX TEMP:  77; 6HR PCP:  1.77;

MONTICELLO     LGT RAIN  74  71  91 SW17G26   29.75R
6HR MIN TEMP:  74; 6HR MAX TEMP:  77; 6HR PCP:  2.73;



...NORTH MISSISSIPPI...

CITY           SKY/WX    TMP DP  RH WIND       PRES   REMARKS
TUPELO         PTSUNNY   78  72  81 SE17G28   29.80S
6HR MIN TEMP:  77; 6HR MAX TEMP:  78;

OXFORD         LGT RAIN  73  72  94 S12G24    29.77R
BATESVILLE     HVY RAIN  76  71  86 S17G23    29.72F
6HR MIN TEMP:  76; 6HR MAX TEMP:  79; 6HR PCP:  0.53;

OLIVE BRANCH   RAIN     N/A N/A N/A S12G17    29.66  FOG
TUNICA         HVY RAIN  73  72  94 S29G41    29.65R
CLARKSDALE       N/A     75  75 100 S22G33    29.69R FOG
CORINTH        PTSUNNY   79  72  78 S13G28    29.78F
GREENWOOD      CLOUDY    79  74  84 S17G30    29.77R
6HR MIN TEMP:  78; 6HR MAX TEMP:  79;

COLUMBUS       MOSUNNY   78  78 100 S14       29.85R
6HR MIN TEMP:  76; 6HR MAX TEMP:  78;

STARKVILLE     PTSUNNY   73  72  94 S12       29.86R
GOLDEN TRIANGL CLOUDY    75  70  83 S16       29.82R FOG


...SOUTHEAST MISSOURI...

CITY           SKY/WX    TMP DP  RH WIND       PRES   REMARKS
KENNETT        RAIN      75  75 100 SE12      29.66S
MALDEN         HVY RAIN  75  72  88 SE8       29.70S
WEST PLAINS    CLOUDY    74  73  97 NE5       29.72F FOG
6HR MIN TEMP:  74; 6HR MAX TEMP:  76; 6HR PCP:  0.04;

POPLAR BLUFF   LGT RAIN  75  75 100 CALM      29.69S
6HR MIN TEMP:  75; 6HR MAX TEMP:  79; 6HR PCP:  0.58;

CAPE GIRARDEAU CLOUDY    76  73  91 S6        29.71R
6HR MIN TEMP:  75; 6HR MAX TEMP:  77; 6HR PCP:  0.36;



...NORTHWEST ALABAMA...

CITY           SKY/WX    TMP DP  RH WIND       PRES   REMARKS
MUSCLE SHOALS  PTSUNNY   78  71  79 S10       29.86F
6HR MIN TEMP:  77; 6HR MAX TEMP:  79;



...MIDDLE TENNESSEE...

CITY           SKY/WX    TMP DP  RH WIND       PRES   REMARKS
NASHVILLE      MOSUNNY   78  71  79 S14       29.85S
6HR MIN TEMP:  76; 6HR MAX TEMP:  78;

CLARKSVILLE    SUNNY     77  70  79 S10G17    29.79F
6HR MIN TEMP:  75; 6HR MAX TEMP:  77;

COLUMBIA       MOSUNNY   77  72  83 S13G20    29.83F


...WESTERN KENTUCKY...

CITY           SKY/WX    TMP DP  RH WIND       PRES   REMARKS
PADUCAH        CLOUDY    77  71  82 S7        29.72S
6HR MIN TEMP:  76; 6HR MAX TEMP:  78; 6HR PCP:  0.13;

FORT CAMPBELL  SUNNY     78  72  82 S12       29.78F
6HR MIN TEMP:  75; 6HR MAX TEMP:  78;



...CENTRAL ARKANSAS...

CITY           SKY/WX    TMP DP  RH WIND       PRES   REMARKS
LITTLE ROCK    CLOUDY    75  75 100 W10       29.68R
6HR MIN TEMP:  75; 6HR MAX TEMP:  76; 6HR PCP:  0.06;



SKY/WX REPORTED AS FAIR MEANS FEW OR NO CLOUDS BELOW
12 THOUSAND FEET.




USA.gov is the U.S. government's official web portal to all federal, state and local government web resources and services.